Hourly Data Report for March 12, 2012

All times are specified in Local Standard Time (LST). Add 1 hour to adjust for Daylight Saving Time where and when it is observed.

MIRAMICHI RCS
NEW BRUNSWICK

47°00'34.000" N
65°27'54.000" W
33.00 m
8100989
71744
ACQ

Download Data

Hourly Data (March 2012)
Hourly Data Report for March 12, 2012
TIME Temp Definition
°C
Dew Point Temp Definition
°C
Rel Hum Definition
%
Wind Dir Definition
10's deg

Wind Spd Definition
km/h
Visibility Definition
km
Stn Press Definition
kPa
Hmdx Definition


Wind Chill Definition


Weather Definition


00:00 -3.9 -6.4 83 6 4   101.66   -6 LegendNANA
01:00 -4.0 -6.1 85 9 2   101.63   -5 LegendNANA
02:00 -3.9 -6.5 82   0   101.57     LegendNANA
03:00 -5.3 -7.2 86 26 2   101.50   -6 LegendNANA
04:00 -6.2 -7.9 88   0   101.45     LegendNANA
05:00 -6.6 -8.5 86 25 7   101.44   -10 LegendNANA
06:00 -5.8 -7.6 87 25 7   101.43   -9 LegendNANA
07:00 -6.3 -7.9 88   0   101.52     LegendNANA
08:00 -3.4 -6.5 79 26 7   101.57   -6 LegendNANA
09:00 -0.2 -5.4 68 27 9   101.58   -3 LegendNANA
10:00 4.5 -3.9 54 28 7   101.55     LegendNANA
11:00 6.7 -3.7 47 30 11   101.54     LegendNANA
12:00 8.0 -5.0 39 29 17   101.53     LegendNANA
13:00 9.4 -6.1 33 28 15   101.49     LegendNANA
14:00 10.4 -8.3 26 27 15   101.43     LegendNANA
15:00 11.2 -9.2 23 28 13   101.40     LegendNANA
16:00 10.9 -9.4 23 30 13   101.40     LegendNANA
17:00 10.5 -8.6 25 29 13   101.41     LegendNANA
18:00 9.6 -9.4 25 29 11   101.46     LegendNANA
19:00 5.9 -9.8 31 30 6   101.49     LegendNANA
20:00 4.0 -8.2 41 27 7   101.54     LegendNANA
21:00 0.8 -7.6 53 27 6   101.58     LegendNANA
22:00 -0.6 -6.7 63 29 6   101.62   -3 LegendNANA
23:00 -1.7 -6.0 72 26 6   101.63   -4 LegendNANA

Notes on Data Quality.

Legend

  • E = Estimated
  • M = Missing
  • NA = Not Available
Date modified: